Observations
| Time | Sensor | AQI | SAQ | Temp °C | Hum % | Pres Pa | CO μg/m³ | H₂S μg/m³ | NO μg/m³ | NO₂ μg/m³ | O₃ μg/m³ | SO₂ μg/m³ | CO₂e PPM | VOC PPM | PM1 μg/m³ | PM2.5 μg/m³ | PM4 μg/m³ | PM10 μg/m³ | TPS µm |
|---|---|---|---|---|---|---|---|---|---|---|---|---|---|---|---|---|---|---|---|
| Thursday 13 August 2026 | |||||||||||||||||||
| 02:03 | Trim Patrick St | 2 | 20.6 | 69 | 26,726 | 0 | 13.73 | 1.1 | 23.72 | 49.17 | 5.8 | 4.57 | 9.58 | 10.53 | |||||
| 02:02 | Trim Market St | 3 | 21.3 | 64 | 57,419 | 0 | 0 | 1.11 | 21.11 | 58.36 | 0 | 2.85 | 4.31 | 7.53 | |||||
| 02:02 | Trim Patrick St | 2 | 20.6 | 69 | 22,815 | 0 | 12.92 | 1.09 | 42.15 | 29.51 | 4.36 | 6.29 | 10.29 | 11.32 | |||||
| 02:01 | Trim Market St | 3 | 21.3 | 64 | 57,443 | 0 | 0 | 1.11 | 24.6 | 55.78 | 0 | 2.85 | 4.81 | 7.53 | |||||
| 02:01 | Trim Patrick St | 2 | 20.6 | 69 | 17,598 | 0 | 11.68 | 1.07 | 24.27 | 46.19 | 5.31 | 7.14 | 11.76 | 12.93 | |||||
| 02:00 | Trim Market St | 3 | 21.3 | 64 | 57,466 | 0 | 0 | 1.12 | 24.29 | 58.77 | 0 | 2.85 | 4.32 | 6.21 | |||||
| 02:00 | Trim Patrick St | 2 | 20.6 | 68 | 12,680 | 0 | 13.23 | 1.08 | 40.65 | 33.05 | 4.81 | 7.14 | 10.32 | 11.35 | |||||
| 01:59 | Trim Market St | 3 | 21.3 | 64 | 57,488 | 0 | 0 | 1.11 | 20.26 | 57.3 | 0 | 2.85 | 4.82 | 6.87 | |||||
| 01:59 | Trim Patrick St | 2 | 20.6 | 68 | 7,254 | 0 | 12.02 | 1.09 | 27.81 | 49.21 | 5.17 | 5.43 | 10.32 | 11.36 | |||||
| 01:58 | Trim Market St | 3 | 21.4 | 64 | 57,509 | 0 | 0 | 1.11 | 21.14 | 58.25 | 0 | 3.56 | 5.32 | 7.53 | |||||
| 01:58 | Trim Patrick St | 2 | 20.6 | 68 | 5,088 | 0 | 9.68 | 1.1 | 29.03 | 40.32 | 4.73 | 6.29 | 9.62 | 10.58 | |||||
| 01:57 | Trim Market St | 3 | 21.4 | 64 | 57,531 | 0 | 0 | 1.1 | 22.38 | 57.46 | 0 | 2.85 | 5.32 | 7.53 | |||||
| 01:57 | Trim Patrick St | 2 | 20.6 | 68 | 3,099 | 0 | 8.49 | 1.1 | 18.23 | 50.9 | 5.18 | 5.43 | 9.64 | 10.6 | |||||
| 01:56 | Trim Market St | 3 | 21.4 | 64 | 57,551 | 0 | 0 | 1.11 | 20.23 | 59.34 | 0 | 3.56 | 4.84 | 8.86 | |||||
| 01:56 | Trim Patrick St | 2 | 20.7 | 68 | 949 | 0 | 10.94 | 1.09 | 24.45 | 51.36 | 5.16 | 6.29 | 10.39 | 11.43 | |||||
| 01:55 | Trim Market St | 3 | 21.4 | 64 | 57,571 | 0 | 0 | 1.11 | 21.13 | 59.95 | 0 | 3.56 | 4.84 | 6.86 | |||||
| 01:55 | Trim Patrick St | 2 | 20.7 | 65 | 110,001 | 0 | 12.26 | 1.17 | 39.1 | 30.11 | 4.91 | 6.29 | 11.34 | 12.47 | |||||
| 01:54 | Trim Market St | 3 | 21.4 | 64 | 57,589 | 0 | 0 | 1.12 | 22.13 | 56.36 | 0 | 2.85 | 5.34 | 7.53 | |||||
| 01:54 | Trim Patrick St | 2 | 20.7 | 67 | 105,188 | 0 | 12.12 | 1.09 | 31.13 | 42.1 | 5.04 | 4.57 | 9.68 | 10.64 | |||||
| 01:53 | Trim Market St | 3 | 21.4 | 63 | 57,613 | 0 | 0 | 1.12 | 23.53 | 57.98 | 0 | 2.85 | 5.35 | 8.86 | |||||